Waarnemingen

Advertentie
Mijn weer
Gourdon, Frankrijk (7535): temperatuur & dauwpunt: 27.05.2020 09:00:00 - 02.06.2020 09:00:00 (CEST)Gourdon, Frankrijk (7535): temperatuur 5cm: 27.05.2020 09:00:00 - 02.06.2020 09:00:00 (CEST)Gourdon, Frankrijk (7535): temperatuur -20cm & temperatuur -100cm: 27.05.2020 09:00:00 - 02.06.2020 09:00:00 (CEST)Gourdon, Frankrijk (7535): windsnelheid & windstoten: 27.05.2020 09:00:00 - 02.06.2020 09:00:00 (CEST)Gourdon, Frankrijk (7535): windrichting: 27.05.2020 09:00:00 - 02.06.2020 09:00:00 (CEST)Gourdon, Frankrijk (7535): luchtdruk: 27.05.2020 09:00:00 - 02.06.2020 09:00:00 (CEST)Gourdon, Frankrijk (7535): zicht: 27.05.2020 09:00:00 - 02.06.2020 09:00:00 (CEST)Gourdon, Frankrijk (7535): Zonneschijnduur: 27.05.2020 09:00:00 - 02.06.2020 09:00:00 (CEST)Gourdon, Frankrijk (7535): neerslag: 27.05.2020 09:00:00 - 02.06.2020 09:00:00 (CEST)
Datum & Tijd tt [°C] td [°C] tt 5cm [°C] tt -20cm [°C] tt -100cm [°C] ff [km/u] ff [kn] fx [km/u] fx [kn] dd ppp [hPa] vv [km] sd [min] rr [mm]
02.06.2020 09:00:00 15,0 13,2 15,9 19,9 18,4 5 3 8 5 N 1017,4 7 60 0,0
02.06.2020 08:00:00 14,2 13,1 11,7 20,0 18,3 0 0 5 3 N 1017,2 20 60 0,0
02.06.2020 07:00:00 11,8 11,3 9,4 20,2 18,3 0 0 5 3 N 1017,3 16 24 0,0
02.06.2020 06:00:00 11,2 10,6 9,6 20,5 18,3 2 1 6 3 ONO 1017,0 7 0 0,0
02.06.2020 05:00:00 11,6 11,0 10,0 20,6 18,3 4 2 7 4 OZO 1016,9 16 0 0,0
02.06.2020 04:00:00 11,9 11,1 10,9 20,8 18,3 4 2 8 4 ZO 1017,2 17 0 0,0
02.06.2020 03:00:00 11,9 11,3 10,8 21,0 18,3 5 3 9 5 ZO 1017,2 6 0 0,0
02.06.2020 02:00:00 12,7 11,6 11,2 21,2 18,3 4 2 11 6 ONO 1017,1 18 0 0,0
02.06.2020 01:00:00 13,1 11,8 11,3 21,4 18,3 4 2 10 5 N 1017,3 20 0 0,0
02.06.2020 00:00:00 13,3 11,9 11,9 21,6 18,3 5 3 10 5 OZO 1017,3 20 0 0,2
01.06.2020 23:00:00 14,2 12,6 13,0 21,8 18,3 0 0 15 8 N 1016,6 20 0 0,0
01.06.2020 22:00:00 14,6 12,8 13,7 22,0 18,3 6 3 29 16 ZO 1016,6 20 0 0,2
01.06.2020 21:00:00 14,3 13,3 14,1 22,2 18,3 15 8 30 16 O 1017,5 10 0 5,5
01.06.2020 20:00:00 15,1 13,3 14,2 22,2 18,3 15 8 45 25 NNO 1017,1 10 0 2,0
01.06.2020 19:00:00 19,1 14,1 19,0 22,2 18,3 9 5 34 19 ZO 1014,7 19 0 0,2
01.06.2020 18:00:00 19,8 15,0 20,2 22,2 18,3 13 7 28 15 ZO 1014,6 20 0 0,0
01.06.2020 17:00:00 19,2 15,5 16,7 22,0 18,2 8 4 42 23 OZO 1014,2 20 0 0,4
01.06.2020 16:00:00 23,4 16,0 20,5 21,8 18,2 5 3 10 6 WZW 1013,8 18 0 0,4
01.06.2020 15:00:00 25,8 13,0 30,2 21,5 18,2 7 4 16 9 ZZW 1013,9 20 16 0,0
01.06.2020 14:00:00 25,7 13,5 32,7 21,2 18,2 8 4 29 16 ZZW 1014,1 20 44 0,0
01.06.2020 13:00:00 25,2 13,7 34,8 21,2 18,2 10 5 23 12 Z 1014,3 20 60 0,0
01.06.2020 12:00:00 23,5 13,1 32,6 21,1 18,2 10 5 23 12 ZO 1014,7 20 60 0,0
01.06.2020 11:00:00 21,9 12,7 29,8 21,1 18,2 13 7 22 12 Z 1014,7 20 60 0,0
01.06.2020 10:00:00 21,1 12,0 24,7 21,1 18,2 14 7 22 12 Z 1014,7 20 60 0,0
01.06.2020 09:00:00 19,6 11,4 20,1 21,3 18,2 11 6 25 13 ZO 1014,6 20 60 0,0
01.06.2020 08:00:00 17,8 11,4 16,1 21,4 18,2 9 5 13 7 ZO 1014,5 20 60 0,0
01.06.2020 07:00:00 15,9 11,3 14,3 21,5 18,1 8 4 21 11 ZO 1014,3 20 24 0,0
01.06.2020 06:00:00 15,6 11,4 14,2 21,7 18,1 12 7 22 12 ZO 1013,7 20 0 0,0
01.06.2020 05:00:00 16,4 11,8 15,0 21,8 18,1 12 7 22 12 ZO 1013,6 20 0 0,0
01.06.2020 04:00:00 17,1 12,2 15,3 21,9 18,1 10 6 18 10 ZO 1013,5 20 0 0,0
01.06.2020 03:00:00 18,1 13,2 16,9 22,1 18,1 9 5 18 10 ZO 1013,5 20 0 0,0
01.06.2020 02:00:00 18,8 13,4 17,9 22,2 18,1 6 4 17 9 OZO 1013,6 20 0 0,0
01.06.2020 01:00:00 19,8 13,3 18,8 22,3 18,1 9 5 26 14 ZO 1013,8 20 0 0,0
01.06.2020 00:00:00 20,8 13,2 19,5 22,4 18,1 16 9 29 16 Z 1013,0 20 0 0,0
31.05.2020 23:00:00 22,1 13,7 20,8 22,4 18,1 18 10 30 16 Z 1012,7 20 0 0,0
31.05.2020 22:00:00 23,5 14,2 22,2 22,4 18,1 15 8 26 14 Z 1011,6 20 7 0,0
31.05.2020 21:00:00 25,3 12,5 24,6 22,4 18,1 14 7 23 13 ZZO 1010,8 20 4 0,0
31.05.2020 20:00:00 27,0 11,5 27,4 22,2 18,1 5 3 15 8 ZO 1010,2 20 35 0,0
31.05.2020 19:00:00 29,8 9,8 31,5 22,0 18,0 4 2 16 9 W 1009,4 20 57 0,0
31.05.2020 18:00:00 28,4 9,1 31,9 21,7 18,0 5 3 15 8 N 1010,1 20 46 0,0
31.05.2020 17:00:00 29,4 9,5 43,9 21,4 18,1 7 4 17 9 N 1010,3 20 60 0,0
31.05.2020 16:00:00 29,2 9,3 42,8 21,1 18,0 9 5 20 11 O 1010,5 20 60 0,0
31.05.2020 15:00:00 28,9 10,1 32,7 20,8 18,0 6 4 19 11 Z 1011,1 20 45 0,0
31.05.2020 14:00:00 27,5 11,5 29,9 20,6 18,0 9 5 18 10 OZO 1011,6 20 48 0,0
31.05.2020 13:00:00 25,5 13,0 30,5 20,4 18,0 5 3 16 8 OZO 1012,2 20 50 0,0
31.05.2020 12:00:00 25,3 12,8 36,2 20,3 18,0 8 4 16 8 ZO 1012,3 20 60 0,0
31.05.2020 11:00:00 23,4 12,4 31,2 20,3 18,0 5 3 16 8 ONO 1012,5 20 60 0,0
31.05.2020 10:00:00 21,7 11,7 24,4 20,3 18,0 8 4 21 12 OZO 1013,1 20 60 0,0
31.05.2020 09:00:00 19,9 11,6 19,7 20,5 18,0 10 6 21 11 ZO 1013,3 20 60 0,0
31.05.2020 08:00:00 17,6 11,6 14,2 20,6 18,0 6 3 17 9 OZO 1013,4 20 60 0,0
31.05.2020 07:00:00 15,2 11,0 12,2 20,8 18,0 11 6 18 10 OZO 1013,4 20 23 0,0
31.05.2020 06:00:00 14,8 11,0 12,3 20,9 18,0 8 4 16 9 OZO 1013,0 20 0 0,0
31.05.2020 05:00:00 15,2 11,2 12,3 21,1 17,9 9 5 18 10 OZO 1013,0 20 0 0,0
31.05.2020 04:00:00 15,5 11,5 12,8 21,3 17,9 7 4 14 7 OZO 1013,2 20 0 0,0
31.05.2020 03:00:00 16,1 10,8 12,7 21,4 17,9 9 5 17 9 ZO 1013,7 20 0 0,0
31.05.2020 02:00:00 16,7 8,1 10,6 21,6 17,9 7 4 15 8 OZO 1013,8 20 0 0,0
31.05.2020 01:00:00 17,2 7,8 10,6 21,8 17,9 3 1 9 5 O 1013,9 20 0 0,0
31.05.2020 00:00:00 16,8 9,5 11,4 21,9 17,9 0 0 9 5 N 1013,8 20 0 0,0
30.05.2020 23:00:00 18,3 10,4 12,5 22,0 17,9 0 0 4 2 N 1013,4 20 0 0,0
30.05.2020 22:00:00 21,4 11,1 13,6 22,1 17,9 0 0 8 4 N 1012,4 20 0 0,0
30.05.2020 21:00:00 23,9 9,8 18,4 22,1 17,9 4 2 12 7 N 1012,0 20 44 0,0
30.05.2020 20:00:00 26,6 10,7 25,8 21,9 17,9 5 3 13 7 NNW 1011,8 20 56 -
30.05.2020 19:00:00 26,2 9,9 26,0 21,7 17,9 5 3 20 11 N 1012,0 20 46 0,0
30.05.2020 18:00:00 27,4 8,3 37,7 21,5 17,9 8 4 16 9 N 1012,2 20 60 0,0
30.05.2020 17:00:00 27,3 8,7 42,2 21,2 17,9 6 3 21 12 NNO 1012,5 20 60 0,0
30.05.2020 16:00:00 27,6 9,4 35,8 20,9 17,9 6 3 20 11 NW 1012,8 20 57 0,0
30.05.2020 15:00:00 26,4 9,7 37,5 20,6 17,9 11 6 21 12 N 1013,3 20 56 0,0
30.05.2020 14:00:00 25,2 11,0 32,7 20,3 17,9 3 2 18 10 ONO 1013,9 20 50 0,0
30.05.2020 13:00:00 25,0 11,9 37,6 20,1 17,8 6 3 16 9 N 1014,4 20 60 0,0
30.05.2020 12:00:00 24,2 12,8 33,2 20,0 17,8 4 2 18 10 N 1014,9 20 60 0,0
30.05.2020 11:00:00 22,5 12,1 30,3 20,0 17,8 5 3 16 8 Z 1015,5 20 60 0,0
30.05.2020 10:00:00 20,6 11,0 23,8 20,1 17,8 7 4 16 9 OZO 1016,0 20 60 0,0
30.05.2020 09:00:00 18,6 9,6 18,5 20,2 17,8 8 4 16 9 OZO 1016,3 20 60 0,0
30.05.2020 08:00:00 16,7 8,6 12,4 20,4 17,8 4 2 10 5 O 1016,5 20 60 0,0
30.05.2020 07:00:00 14,5 8,0 10,0 20,5 17,8 5 3 14 7 OZO 1016,5 20 23 0,0
30.05.2020 06:00:00 14,1 8,1 10,7 20,7 17,8 4 2 22 12 OZO 1016,3 20 0 0,0
30.05.2020 05:00:00 14,7 9,3 12,7 20,9 17,8 11 6 27 15 ZO 1016,4 20 0 0,0
30.05.2020 04:00:00 15,8 10,8 14,1 21,0 17,8 14 8 26 14 OZO 1016,2 20 0 0,0
30.05.2020 03:00:00 16,5 12,3 14,3 21,2 17,7 10 5 19 10 OZO 1016,5 20 0 0,0
30.05.2020 02:00:00 16,9 11,4 12,9 21,3 17,7 9 5 18 10 OZO 1016,7 20 0 0,0
30.05.2020 01:00:00 17,6 4,9 12,3 21,5 17,7 8 5 18 10 ZO 1016,8 20 0 0,0
30.05.2020 00:00:00 19,3 2,2 13,4 21,7 17,7 7 4 22 12 O 1016,1 20 0 0,0
29.05.2020 23:00:00 20,4 1,8 16,0 21,7 17,7 11 6 22 12 ONO 1015,7 20 0 0,0
29.05.2020 22:00:00 21,9 2,0 17,9 21,8 17,7 14 7 27 15 NO 1014,9 20 0 0,0
29.05.2020 21:00:00 24,0 3,3 20,7 21,8 17,7 14 7 25 13 NO 1014,3 20 44 0,0
29.05.2020 20:00:00 26,3 3,5 26,1 21,7 17,7 9 5 22 12 NO 1013,8 20 60 0,0
29.05.2020 19:00:00 27,3 4,3 28,8 21,5 17,7 10 5 27 15 NO 1013,7 20 60 0,0
29.05.2020 18:00:00 27,9 6,0 39,0 21,3 17,7 9 5 29 16 N 1013,9 20 60 0,0
29.05.2020 17:00:00 27,9 7,2 41,4 20,9 17,7 8 4 24 13 N 1014,1 20 60 0,0
29.05.2020 16:00:00 27,7 9,0 41,0 20,6 17,7 11 6 25 13 N 1014,3 20 60 0,0
29.05.2020 15:00:00 27,1 8,5 39,6 20,3 17,7 11 6 24 13 NNO 1015,1 20 60 0,0
29.05.2020 14:00:00 26,0 8,5 39,7 20,0 17,7 9 5 23 13 O 1015,8 20 60 0,0
29.05.2020 13:00:00 25,4 7,5 37,9 19,8 17,6 12 7 23 13 N 1016,5 20 60 0,0
29.05.2020 12:00:00 24,6 9,7 36,8 19,7 17,7 7 4 17 9 O 1016,7 20 60 0,0
29.05.2020 11:00:00 22,4 9,5 31,4 19,7 17,6 10 5 17 9 N 1017,4 20 60 0,0
29.05.2020 10:00:00 20,7 9,9 25,1 19,8 17,6 8 4 13 7 N 1017,9 20 60 0,0
29.05.2020 09:00:00 18,5 9,3 17,8 19,9 17,6 8 4 13 7 N 1018,3 20 60 0,0
29.05.2020 08:00:00 16,5 8,7 11,7 20,1 17,6 5 3 10 5 NNO 1018,7 20 60 0,0
29.05.2020 07:00:00 14,6 7,9 9,5 20,3 17,6 7 4 14 8 N 1019,1 20 22 0,0
29.05.2020 06:00:00 14,1 7,6 8,3 20,5 17,6 8 4 12 7 NNO 1019,1 20 0 0,0
29.05.2020 05:00:00 14,4 7,4 8,3 20,7 17,5 4 2 13 7 N 1019,1 20 0 0,0
29.05.2020 04:00:00 16,0 8,0 8,9 20,8 17,5 8 4 13 7 NO 1019,3 20 0 0,0
29.05.2020 03:00:00 14,3 8,5 9,3 21,0 17,5 4 2 5 3 OZO 1019,9 20 0 0,0
29.05.2020 02:00:00 18,0 7,4 10,3 21,2 17,5 4 2 15 8 O 1019,8 20 0 0,0
29.05.2020 01:00:00 19,6 7,7 13,0 21,3 17,5 9 5 19 10 ONO 1020,0 20 0 0,0
29.05.2020 00:00:00 21,3 7,5 16,2 21,4 17,5 12 6 23 12 NO 1020,0 20 0 0,0
28.05.2020 23:00:00 21,4 8,6 13,4 21,5 17,5 12 7 22 12 ONO 1020,0 20 0 0,0
28.05.2020 22:00:00 21,7 11,1 14,1 21,6 17,5 0 0 8 4 N 1019,7 20 0 0,0
28.05.2020 21:00:00 25,2 9,1 18,4 21,5 17,5 5 3 10 5 NNW 1019,4 20 44 0,0
28.05.2020 20:00:00 28,0 8,3 26,4 21,4 17,5 5 3 15 8 N 1019,4 20 60 0,0
28.05.2020 19:00:00 27,9 6,0 29,2 21,2 17,4 8 4 18 10 NO 1019,8 20 60 0,0
28.05.2020 18:00:00 28,9 6,3 39,2 20,9 17,5 9 5 22 12 NNO 1020,2 20 60 0,0
28.05.2020 17:00:00 28,6 6,6 42,3 20,6 17,4 8 4 22 12 NNW 1020,7 20 60 0,0
28.05.2020 16:00:00 28,1 9,9 43,8 20,3 17,4 9 5 26 14 NNW 1021,6 20 60 0,0
28.05.2020 15:00:00 27,8 9,6 41,2 19,9 17,4 6 4 19 10 N 1022,1 20 60 0,0
28.05.2020 14:00:00 26,8 10,1 41,8 19,7 17,4 8 5 19 11 NW 1022,8 20 60 0,0
28.05.2020 13:00:00 26,8 9,6 35,9 19,5 17,4 4 2 15 8 ZO 1023,4 18 60 0,0
28.05.2020 12:00:00 26,0 8,5 35,9 19,4 17,4 8 4 14 7 O 1024,1 20 60 0,0
28.05.2020 11:00:00 24,7 9,8 32,8 19,3 17,4 5 3 12 7 OZO 1024,7 20 60 0,0
28.05.2020 10:00:00 22,7 10,8 25,8 19,4 17,4 6 3 12 6 ONO 1025,3 20 60 0,0
28.05.2020 09:00:00 20,6 9,8 19,6 19,5 17,4 6 3 16 9 O 1025,7 20 60 0,0
28.05.2020 08:00:00 18,4 8,4 14,0 19,7 17,2 5 3 21 11 O 1026,1 20 60 0,0
28.05.2020 07:00:00 16,4 7,6 11,4 19,8 17,3 9 5 21 11 O 1026,5 20 21 0,0
28.05.2020 06:00:00 15,8 7,3 10,6 20,0 17,4 8 5 17 9 O 1026,6 20 0 0,0
28.05.2020 05:00:00 15,7 10,2 10,3 20,1 17,3 6 3 11 6 O 1026,5 20 0 0,0
28.05.2020 04:00:00 16,5 11,0 10,6 20,3 17,3 4 2 10 5 O 1026,7 20 0 0,0
28.05.2020 03:00:00 16,3 11,2 12,6 20,5 17,3 8 4 13 7 OZO 1026,8 20 0 0,0
28.05.2020 02:00:00 17,2 10,1 11,7 20,6 17,3 8 4 14 8 OZO 1027,0 20 0 0,0
28.05.2020 01:00:00 17,8 7,8 11,8 20,8 17,3 6 3 15 8 ZZO 1026,9 20 0 0,0
28.05.2020 00:00:00 20,0 7,0 12,6 20,9 17,3 11 6 20 11 ONO 1026,4 20 0 0,0
27.05.2020 23:00:00 18,4 9,5 13,4 21,0 17,3 6 4 20 11 OZO 1026,5 20 0 0,0
27.05.2020 22:00:00 19,9 10,0 14,3 21,0 17,3 7 4 9 5 OZO 1025,6 20 0 0,0
27.05.2020 21:00:00 24,9 5,6 18,0 20,9 17,3 6 4 13 7 ONO 1024,9 20 45 0,0
27.05.2020 20:00:00 27,1 6,5 26,0 20,8 17,3 8 4 16 9 NO 1024,4 20 60 0,0
27.05.2020 19:00:00 28,4 5,3 29,2 20,6 17,3 8 4 16 9 ONO 1024,2 20 60 0,0
27.05.2020 18:00:00 29,2 5,3 38,1 20,3 17,3 5 3 21 11 NO 1024,5 13 60 0,0
27.05.2020 17:00:00 28,8 5,0 40,2 20,0 17,3 11 6 22 12 ONO 1024,7 20 60 0,0
27.05.2020 16:00:00 28,8 5,0 41,4 19,6 17,3 10 5 22 12 ONO 1025,1 20 60 0,0
27.05.2020 15:00:00 27,9 2,9 40,5 19,3 17,3 11 6 23 12 O 1025,6 20 60 0,0
27.05.2020 14:00:00 27,7 2,7 39,6 19,0 17,3 11 6 21 12 O 1026,0 20 60 0,0
27.05.2020 13:00:00 26,8 3,3 37,7 18,8 17,2 6 4 21 11 O 1026,4 20 60 0,0
27.05.2020 12:00:00 24,0 8,8 35,3 18,7 17,2 9 5 18 10 NO 1026,7 20 60 0,0
27.05.2020 11:00:00 22,2 8,7 30,2 18,7 17,2 10 5 21 12 NO 1027,0 20 60 0,0
27.05.2020 10:00:00 20,6 7,2 22,9 18,8 17,2 9 5 18 10 O 1027,4 20 60 0,0
27.05.2020 09:00:00 16,5 8,2 15,0 18,9 17,2 8 4 12 7 N 1027,5 20 60 0,0

tt = temperatuur
td = dauwpunt
tt 5cm = temperatuur 5cm
tt -20cm = temperatuur -20cm
tt -100cm = temperatuur -100cm
ff = windsnelheid
fx = windstoten
dd = windrichting
ppp = luchtdruk
vv = zicht
sd = Zonneschijnduur
rr = neerslag

Weerstations in de omgeving